Misión y Visión

La misión es proporcionar información fiable a la navegación aérea, contribuyendo a la seguridad, regularidad y eficiencia de la Navegación Aérea Internacional

La visión es contribuir sustancialmente al desarrollo de conocimientos y a la utilización de la meteorología aeronáutica a nivel nacional e internacional, mediante la innovación y la coparticipación con sectores sociales y productivos de la sociedad.

 
  Inicio
  Metar
  Taf
  Wintemp
  SIGMET
  Avisos
  Pronósticos
  Carpeta Meteorologica
  Imágenes Satelitales
  Climatología Aeronáutica
   
  ¿Quienes Somos?
  Contacto
  Eventos
  Publicaciones
  Politica de la Calidad
Taf

DIRECCIONES PARA INFORMES NACIONALES E INTERNACIONALES
(Metar /Speci - TAF)

http://adds.aviationweather.gov/tafs/index.php

http://www.ogimet.com/metars.phtml

PRONÓSTICOS DE AERÓDROMO

Cuando sea necesario, el encabezamiento abreviado puede incluir un cuarto grupo consistente en tres letras para identificar los boletines demorados (RRA), corregidos (CCA) o enmendados (AAA). Los boletines adicionales demorados, corregidos o enmendados deben identificarse con las letras RRB, RRC, etc.; CCB, CCC,etc.;AAB, AAC,etc.

 

DÍA 26/11/2014

TAF MPTO 

TAF MPTO 252300Z 2600/2624 00000KT 9999 SCT016 BKN090
PROB30 TEMPO 2600/2603 7000 -RA
BECMG 2603/2606 SCT018 SCT090
PROB30 TEMPO 2615/2619 19004KT 5000 TSRA SCT014CB BKN080=

  TAF MPPA   

TAF MPPA 252300Z 2600/2624 00000KT 9999 SCT016 BKN090
PROB30 TEMPO 2600/2603 7000 -RA
BECMG 2603/2606 SCT016 SCT090
PROB30 TEMPO 2616/2620 21005KT 6000 TSRA SCT014CB BKN080=

TAF MPMG TAF MPMG 251700Z 2518/2606 32004KT 9999 SCT018 SCT080 PROB40 TEMPO 2518/2522 19005KT 5000 TSRA SCT015CB BKN080 BECMG 2522/2602 00000KT 9999 SCT016 SCT090

TAF MPDA 

 

TAF MPDA 251700Z 2518/2606 21005KT 9999 SCT018 SCT100 PROB40 TEMPO 2519/2523 5000 TSRA SCT015CB BKN090 BECMG 2523/2603 00000KT FEW018 SCT090

 

 
 















  Noticias AAC
  Directorio
  Contáctenos
  Historia
  Quejas y Sugerencias
  Etica y Transparencia

  Gestión SSP/SMS
  Seguridad Aérea
  Navegación Aérea
  Transporte Aéreo

  Tramites
  Áeronaves de Alquiler

  Meteorología
  I.S.F.P.A
  Notam
  Peligro Aviario
  AVSEC
  UPIA
  Permisos
 




DECLARACIÓN DE PRIVACIDAD